This is the latest recevied weather packets stored in our database for station/object WB9TLH-11. If no packets are shown the sender has not sent any weather packets the latest 10 day(s).
| Time | Temp. | Humidity | Pressure | Rain* | Wind** | Luminosity | Snow |
|---|---|---|---|---|---|---|---|
| 1777653962 | 11.67° C | 53% | 1016.1 hPa | 0 mm | - | - | - |
| 1777653662 | 11.67° C | 54% | 1016.1 hPa | 0 mm | - | - | - |
| 1777653362 | 11.11° C | 57% | 1016.1 hPa | 0 mm | - | - | - |
| 1777653062 | 11.11° C | 56% | 1016.1 hPa | 0 mm | - | - | - |
| 1777652762 | 11.67° C | 54% | 1016 hPa | 0 mm | - | - | - |
| 1777652462 | 11.67° C | 53% | 1016.2 hPa | 0 mm | - | - | - |
| 1777652162 | 11.67° C | 55% | 1015.9 hPa | 0 mm | - | - | - |
| 1777651862 | 11.67° C | 55% | 1015.9 hPa | 0 mm | - | - | - |
| 1777651562 | 11.67° C | 54% | 1016 hPa | 0 mm | - | - | - |
| 1777651262 | 11.67° C | 57% | 1016 hPa | 0 mm | - | - | - |
| 1777650962 | 11.67° C | 60% | 1016 hPa | 0 mm | - | - | - |
| 1777650662 | 11.11° C | 60% | 1016 hPa | 0 mm | - | - | - |
| 1777650362 | 11.11° C | 60% | 1016 hPa | 0 mm | - | - | - |
| 1777650062 | 11.11° C | 60% | 1015.9 hPa | 0 mm | - | - | - |
| 1777649762 | 10.56° C | 61% | 1015.9 hPa | 0 mm | - | - | - |
| 1777649462 | 10° C | 62% | 1015.9 hPa | 0 mm | - | - | - |
| 1777649162 | 10° C | 64% | 1015.9 hPa | 0 mm | - | - | - |
| 1777648862 | 10° C | 62% | 1015.8 hPa | 0 mm | - | - | - |
| 1777648262 | 9.44° C | 63% | 1015.7 hPa | 0 mm | - | - | - |
| 1777647962 | 9.44° C | 64% | 1015.5 hPa | 0 mm | - | - | - |
| 1777647662 | 9.44° C | 64% | 1015.6 hPa | 0 mm | - | - | - |
| 1777647362 | 8.89° C | 63% | 1015.5 hPa | 0 mm | - | - | - |
| 1777647062 | 9.44° C | 62% | 1015.4 hPa | 0 mm | - | - | - |
| 1777646762 | 9.44° C | 60% | 1015.3 hPa | 0 mm | - | - | - |
| 1777646463 | 9.44° C | 61% | 1015.2 hPa | 0 mm | - | - | - |
* Rain latest hour (hover to see other rain measurements)
** Current wind speed in m/s (hover to see current wind gust speed)